Location: ????
(32.1228°N, 34.8377°E)
Time: 17:27:35
(UTC+00:00)

Cosmos 2322 Rocket - Pass Details

Date: 21 September 2020
Orbit: 831 x 852 km, 71.0° (Epoch: 24 October)

Event Time Altitude Azimuth Distance (km) Brightness Sun altitude
Exits shadow 00:25:48 16° 115° (ESE) 2,049 4.5 -37.9°
Maximum altitude 00:27:01 17° 99° (E) 1,991 4.5 -37.6°
Drops below altitude 10° 00:30:35 10° 60° (ENE) 2,469 5.4 -37.0°
Sets 00:33:51 0° 41° (NE) 3,412 6.2 -36.4°
